Terminal Aerodrome Forecast
Issued by NWS

Current Version | Previous Version | Graphics & Text | Print | Product List | Glossary On
Versions: 1 2 3 4 5 6 7 8 9 10 11 12 13 14 15 16 17 18 19 20
000
FTUS41 KRLX 231700
TAFCKB
TAF
KCKB 231739Z 2318/2418 20011KT P6SM SCT060
     FM232000 29008G13KT 5SM TSRA BR BKN030CB
     FM232200 31007KT 3SM TSRA BR BKN025CB
     FM240200 VRB03KT 4SM TSRA BR OVC020CB
     FM240400 VRB03KT 5SM BR VCTS OVC020CB
     FM240500 VRB03KT P6SM OVC020
     FM241000 01005KT P6SM OVC025=

USA.gov is the U.S. government's official web portal to all federal, state and local government web resources and services.